Time,TemperatureF,DewpointF,PressureIn,WindDirection,WindDirectionDegrees,WindSpeedMPH,WindSpeedGustMPH,Humidity,HourlyPrecipIn,Conditions,Clouds,dailyrainin,SoftwareType,DateUTC
2013-06-07 00:07:00,43.2,31.5,29.89,East,90,0.0,1.0,63,0.00,,,0.00,meteohub,2013-06-07 07:07:00,
2013-06-07 00:12:00,43.0,31.3,29.89,East,90,0.0,1.0,63,0.00,,,0.00,meteohub,2013-06-07 07:12:00,
2013-06-07 00:22:00,42.3,32.2,29.89,East,90,0.0,1.0,67,0.00,,,0.00,meteohub,2013-06-07 07:22:00,
2013-06-07 00:27:00,42.1,31.1,29.90,East,90,0.0,1.0,65,0.00,,,0.00,meteohub,2013-06-07 07:27:00,
2013-06-07 00:32:00,41.9,30.2,29.90,East,90,0.0,0.0,63,0.00,,,0.00,meteohub,2013-06-07 07:32:00,
2013-06-07 00:37:00,41.7,30.0,29.90,East,90,0.0,0.0,63,0.00,,,0.00,meteohub,2013-06-07 07:37:00,
2013-06-07 00:42:00,41.7,30.0,29.90,East,90,0.0,0.0,63,0.00,,,0.00,meteohub,2013-06-07 07:42:00,
2013-06-07 00:47:00,41.5,29.1,29.90,East,90,0.0,0.0,61,0.00,,,0.00,meteohub,2013-06-07 07:47:00,
2013-06-07 00:52:00,41.5,27.9,29.90,East,90,0.0,1.0,58,0.00,,,0.00,meteohub,2013-06-07 07:52:00,
2013-06-07 00:57:00,41.5,28.2,29.90,East,90,0.0,1.0,59,0.00,,,0.00,meteohub,2013-06-07 07:57:00,
2013-06-07 01:02:00,41.2,27.5,29.90,East,90,0.0,1.0,58,0.00,,,0.00,meteohub,2013-06-07 08:02:00,
2013-06-07 01:07:00,41.2,30.4,29.90,East,90,0.0,1.0,65,0.00,,,0.00,meteohub,2013-06-07 08:07:00,
2013-06-07 01:12:00,40.5,30.4,29.90,East,90,0.0,2.0,67,0.00,,,0.00,meteohub,2013-06-07 08:12:00,
2013-06-07 01:17:00,40.1,28.6,29.91,East,90,0.0,2.0,63,0.00,,,0.00,meteohub,2013-06-07 08:17:00,
2013-06-07 01:22:00,39.9,28.8,29.91,East,90,0.0,2.0,64,0.00,,,0.00,meteohub,2013-06-07 08:22:00,
2013-06-07 01:27:00,39.7,27.3,29.91,East,90,0.0,1.0,61,0.00,,,0.00,meteohub,2013-06-07 08:27:00,
2013-06-07 01:32:00,39.6,26.8,29.91,East,90,0.0,0.0,60,0.00,,,0.00,meteohub,2013-06-07 08:32:00,
2013-06-07 01:37:00,39.6,29.1,29.91,East,90,1.0,0.0,66,0.00,,,0.00,meteohub,2013-06-07 08:37:00,
2013-06-07 01:42:00,39.6,28.0,29.91,East,90,0.0,1.0,63,0.00,,,0.00,meteohub,2013-06-07 08:42:00,
2013-06-07 01:47:00,39.2,28.8,29.91,East,90,0.0,1.0,66,0.00,,,0.00,meteohub,2013-06-07 08:47:00,
2013-06-07 01:52:00,38.8,30.2,29.90,East,90,0.0,1.0,71,0.00,,,0.00,meteohub,2013-06-07 08:52:00,
2013-06-07 01:57:00,38.7,30.4,29.91,East,90,0.0,1.0,72,0.00,,,0.00,meteohub,2013-06-07 08:57:00,
2013-06-07 02:07:00,38.1,28.2,29.91,East,90,0.0,1.0,67,0.00,,,0.00,meteohub,2013-06-07 09:07:00,
2013-06-07 02:12:00,38.5,27.3,29.91,East,90,0.0,1.0,64,0.00,,,0.00,meteohub,2013-06-07 09:12:00,
2013-06-07 02:17:00,38.1,30.2,29.91,East,90,0.0,1.0,73,0.00,,,0.00,meteohub,2013-06-07 09:17:00,
2013-06-07 02:22:00,37.8,29.1,29.91,East,90,0.0,1.0,71,0.00,,,0.00,meteohub,2013-06-07 09:22:00,
2013-06-07 02:27:00,37.8,27.9,29.91,East,90,0.0,1.0,67,0.00,,,0.00,meteohub,2013-06-07 09:27:00,
2013-06-07 02:32:00,37.8,26.6,29.91,East,90,0.0,1.0,64,0.00,,,0.00,meteohub,2013-06-07 09:32:00,
2013-06-07 02:37:00,37.8,30.2,29.91,East,90,0.0,1.0,74,0.00,,,0.00,meteohub,2013-06-07 09:37:00,
2013-06-07 02:42:00,37.6,30.7,29.90,East,90,0.0,1.0,76,0.00,,,0.00,meteohub,2013-06-07 09:42:00,
2013-06-07 02:47:00,37.0,30.2,29.90,East,90,0.0,1.0,76,0.00,,,0.00,meteohub,2013-06-07 09:47:00,
2013-06-07 02:52:00,36.9,29.3,29.91,East,90,0.0,1.0,74,0.00,,,0.00,meteohub,2013-06-07 09:52:00,
2013-06-07 02:57:00,36.7,28.8,29.90,East,90,0.0,1.0,73,0.00,,,0.00,meteohub,2013-06-07 09:57:00,
2013-06-07 03:02:00,36.7,28.6,29.91,East,90,0.0,0.0,72,0.00,,,0.00,meteohub,2013-06-07 10:02:00,
2013-06-07 03:07:00,36.7,29.1,29.91,East,90,0.0,0.0,74,0.00,,,0.00,meteohub,2013-06-07 10:07:00,
2013-06-07 03:12:00,36.7,31.5,29.91,East,90,0.0,0.0,81,0.00,,,0.00,meteohub,2013-06-07 10:12:00,
2013-06-07 03:17:00,36.3,28.6,29.91,East,90,0.0,0.0,73,0.00,,,0.00,meteohub,2013-06-07 10:17:00,
2013-06-07 03:22:00,36.3,27.1,29.90,East,90,0.0,1.0,69,0.00,,,0.00,meteohub,2013-06-07 10:22:00,
2013-06-07 03:27:00,36.7,29.8,29.91,SE,132,0.0,1.0,76,0.00,,,0.00,meteohub,2013-06-07 10:27:00,
2013-06-07 03:32:00,36.0,29.8,29.91,SE,132,0.0,2.0,78,0.00,,,0.00,meteohub,2013-06-07 10:32:00,
2013-06-07 03:37:00,35.2,29.1,29.91,SE,132,0.0,2.0,78,0.00,,,0.00,meteohub,2013-06-07 10:37:00,
2013-06-07 03:42:00,35.1,28.6,29.91,SE,132,0.0,2.0,77,0.00,,,0.00,meteohub,2013-06-07 10:42:00,
2013-06-07 03:47:00,35.1,27.3,29.91,SE,132,0.0,1.0,73,0.00,,,0.00,meteohub,2013-06-07 10:47:00,
2013-06-07 03:52:00,35.2,27.1,29.91,SE,132,0.0,1.0,72,0.00,,,0.00,meteohub,2013-06-07 10:52:00,
2013-06-07 03:57:00,35.6,27.1,29.91,SE,132,2.0,2.0,71,0.00,,,0.00,meteohub,2013-06-07 10:57:00,
2013-06-07 04:02:00,35.4,28.6,29.91,SE,132,0.0,2.0,76,0.00,,,0.00,meteohub,2013-06-07 11:02:00,
2013-06-07 04:07:00,35.2,28.0,29.92,SE,132,1.0,2.0,75,0.00,,,0.00,meteohub,2013-06-07 11:07:00,
2013-06-07 04:12:00,35.2,28.4,29.92,SE,132,0.0,2.0,76,0.00,,,0.00,meteohub,2013-06-07 11:12:00,
2013-06-07 04:17:00,35.2,28.8,29.92,SE,132,0.0,2.0,77,0.00,,,0.00,meteohub,2013-06-07 11:17:00,
2013-06-07 04:27:00,35.1,29.8,29.91,SE,132,0.0,1.0,81,0.00,,,0.00,meteohub,2013-06-07 11:27:00,
2013-06-07 04:37:00,35.1,25.9,29.91,SE,132,0.0,2.0,69,0.00,,,0.00,meteohub,2013-06-07 11:37:00,
2013-06-07 04:42:00,35.2,29.3,29.92,SE,133,0.0,3.0,79,0.00,,,0.00,meteohub,2013-06-07 11:42:00,
2013-06-07 04:47:00,34.7,28.6,29.92,SE,133,0.0,3.0,78,0.00,,,0.00,meteohub,2013-06-07 11:47:00,
2013-06-07 04:52:00,34.5,28.4,29.92,SE,133,0.0,2.0,78,0.00,,,0.00,meteohub,2013-06-07 11:52:00,
2013-06-07 04:57:00,34.5,28.4,29.92,SE,133,0.0,1.0,78,0.00,,,0.00,meteohub,2013-06-07 11:57:00,
2013-06-07 05:02:00,34.5,28.0,29.92,SE,133,0.0,1.0,77,0.00,,,0.00,meteohub,2013-06-07 12:02:00,
2013-06-07 05:07:00,34.7,27.7,29.92,SE,133,0.0,1.0,75,0.00,,,0.00,meteohub,2013-06-07 12:07:00,
2013-06-07 05:12:00,34.9,28.0,29.92,SE,133,1.0,1.0,76,0.00,,,0.00,meteohub,2013-06-07 12:12:00,
2013-06-07 05:17:00,34.9,29.1,29.92,SE,133,0.0,2.0,79,0.00,,,0.00,meteohub,2013-06-07 12:17:00,
2013-06-07 05:22:00,34.9,28.8,29.92,SE,133,0.0,2.0,78,0.00,,,0.00,meteohub,2013-06-07 12:22:00,
2013-06-07 05:27:00,34.9,29.3,29.92,SE,133,1.0,2.0,80,0.00,,,0.00,meteohub,2013-06-07 12:27:00,
2013-06-07 05:37:00,34.5,28.8,29.92,SE,133,0.0,1.0,79,0.00,,,0.00,meteohub,2013-06-07 12:37:00,
2013-06-07 05:47:00,34.5,27.1,29.92,SE,133,0.0,1.0,74,0.00,,,0.00,meteohub,2013-06-07 12:47:00,
2013-06-07 05:52:00,34.9,27.7,29.92,SE,133,0.0,1.0,75,0.00,,,0.00,meteohub,2013-06-07 12:52:00,
2013-06-07 05:57:00,35.1,28.2,29.92,SE,133,0.0,1.0,76,0.00,,,0.00,meteohub,2013-06-07 12:57:00,
2013-06-07 06:02:00,35.2,28.0,29.92,SE,133,0.0,0.0,75,0.00,,,0.00,meteohub,2013-06-07 13:02:00,
2013-06-07 06:07:00,35.4,28.6,29.92,SE,133,0.0,0.0,76,0.00,,,0.00,meteohub,2013-06-07 13:07:00,
2013-06-07 06:12:00,35.6,28.4,29.92,SE,133,0.0,0.0,75,0.00,,,0.00,meteohub,2013-06-07 13:12:00,
2013-06-07 06:17:00,35.8,27.7,29.92,SE,133,0.0,0.0,72,0.00,,,0.00,meteohub,2013-06-07 13:17:00,
2013-06-07 06:27:00,36.9,28.4,29.92,SE,133,0.0,0.0,71,0.00,,,0.00,meteohub,2013-06-07 13:27:00,
2013-06-07 06:32:00,38.1,28.9,29.92,SE,133,0.0,1.0,69,0.00,,,0.00,meteohub,2013-06-07 13:32:00,
2013-06-07 06:42:00,41.2,28.8,29.91,SE,133,0.0,1.0,61,0.00,,,0.00,meteohub,2013-06-07 13:42:00,
2013-06-07 06:47:00,42.4,29.5,29.91,SE,133,0.0,1.0,60,0.00,,,0.00,meteohub,2013-06-07 13:47:00,
2013-06-07 06:57:00,45.3,30.0,29.91,SE,133,0.0,1.0,55,0.00,,,0.00,meteohub,2013-06-07 13:57:00,
2013-06-07 07:07:00,46.2,30.6,29.91,SE,133,1.0,2.0,54,0.00,,,0.00,meteohub,2013-06-07 14:07:00,
2013-06-07 07:17:00,47.5,30.2,29.91,SE,133,1.0,2.0,51,0.00,,,0.00,meteohub,2013-06-07 14:17:00,
2013-06-07 07:27:00,48.7,31.8,29.91,SE,133,1.0,2.0,52,0.00,,,0.00,meteohub,2013-06-07 14:27:00,
2013-06-07 07:32:00,49.1,32.7,29.90,WNW,285,1.0,3.0,53,0.00,,,0.00,meteohub,2013-06-07 14:32:00,
2013-06-07 07:37:00,49.5,33.4,29.90,NW,309,2.0,3.0,54,0.00,,,0.00,meteohub,2013-06-07 14:37:00,
2013-06-07 07:42:00,49.8,32.9,29.90,NW,320,1.0,4.0,52,0.00,,,0.00,meteohub,2013-06-07 14:42:00,
2013-06-07 07:47:00,50.4,32.0,29.90,WNW,302,3.0,4.0,49,0.00,,,0.00,meteohub,2013-06-07 14:47:00,
2013-06-07 07:57:00,51.4,31.8,29.89,WNW,303,0.0,5.0,47,0.00,,,0.00,meteohub,2013-06-07 14:57:00,
2013-06-07 08:07:00,53.8,32.9,29.88,WNW,303,0.0,3.0,45,0.00,,,0.00,meteohub,2013-06-07 15:07:00,
2013-06-07 08:12:00,54.7,32.0,29.88,WNW,303,0.0,3.0,42,0.00,,,0.00,meteohub,2013-06-07 15:12:00,
2013-06-07 08:17:00,55.6,32.2,29.88,WNW,303,0.0,2.0,41,0.00,,,0.00,meteohub,2013-06-07 15:17:00,
2013-06-07 08:27:00,56.8,33.4,29.88,WNW,303,0.0,2.0,41,0.00,,,0.00,meteohub,2013-06-07 15:27:00,
2013-06-07 08:32:00,57.6,34.0,29.87,NW,304,0.0,3.0,41,0.00,,,0.00,meteohub,2013-06-07 15:32:00,
2013-06-07 08:42:00,59.5,34.5,29.86,NW,304,0.0,3.0,39,0.00,,,0.00,meteohub,2013-06-07 15:42:00,
2013-06-07 08:52:00,59.5,37.0,29.86,WNW,286,2.0,3.0,43,0.00,,,0.00,meteohub,2013-06-07 15:52:00,
2013-06-07 08:57:00,59.4,36.9,29.86,WNW,286,1.0,3.0,43,0.00,,,0.00,meteohub,2013-06-07 15:57:00,
2013-06-07 09:02:00,59.4,37.4,29.85,WNW,286,1.0,3.0,44,0.00,,,0.00,meteohub,2013-06-07 16:02:00,
2013-06-07 09:07:00,59.9,36.1,29.85,West,281,2.0,3.0,41,0.00,,,0.00,meteohub,2013-06-07 16:07:00,
2013-06-07 09:12:00,60.3,37.0,29.84,West,277,1.0,4.0,42,0.00,,,0.00,meteohub,2013-06-07 16:12:00,
2013-06-07 09:17:00,61.0,37.0,29.84,West,275,2.0,4.0,41,0.00,,,0.00,meteohub,2013-06-07 16:17:00,
2013-06-07 09:22:00,61.3,38.1,29.84,WSW,252,4.0,4.0,42,0.00,,,0.00,meteohub,2013-06-07 16:22:00,
2013-06-07 09:27:00,61.9,38.5,29.84,West,271,3.0,4.0,42,0.00,,,0.00,meteohub,2013-06-07 16:27:00,
2013-06-07 09:37:00,63.0,36.3,29.83,West,281,3.0,5.0,37,0.00,,,0.00,meteohub,2013-06-07 16:37:00,
2013-06-07 09:42:00,63.7,38.8,29.83,West,274,3.0,5.0,40,0.00,,,0.00,meteohub,2013-06-07 16:42:00,
2013-06-07 09:52:00,64.9,34.3,29.83,NNW,346,5.0,6.0,32,0.00,,,0.00,meteohub,2013-06-07 16:52:00,
2013-06-07 09:57:00,65.7,33.4,29.82,NW,305,8.0,8.0,30,0.00,,,0.00,meteohub,2013-06-07 16:57:00,
2013-06-07 10:07:00,66.6,32.4,29.82,NW,311,6.0,12.0,28,0.00,,,0.00,meteohub,2013-06-07 17:07:00,
2013-06-07 10:12:00,66.4,34.9,29.82,ENE,57,3.0,12.0,31,0.00,,,0.00,meteohub,2013-06-07 17:12:00,
2013-06-07 10:17:00,66.9,37.6,29.81,NNE,25,8.0,15.0,34,0.00,,,0.00,meteohub,2013-06-07 17:17:00,
2013-06-07 10:27:00,67.1,36.3,29.81,NW,310,5.0,14.0,32,0.00,,,0.00,meteohub,2013-06-07 17:27:00,
2013-06-07 10:37:00,67.1,34.7,29.81,NW,312,2.0,12.0,30,0.00,,,0.00,meteohub,2013-06-07 17:37:00,
2013-06-07 10:42:00,66.9,34.5,29.81,NNE,27,5.0,14.0,30,0.00,,,0.00,meteohub,2013-06-07 17:42:00,
2013-06-07 10:47:00,67.6,33.4,29.80,WSW,252,3.0,15.0,28,0.00,,,0.00,meteohub,2013-06-07 17:47:00,
2013-06-07 10:52:00,67.6,33.4,29.80,NNE,19,6.0,15.0,28,0.00,,,0.00,meteohub,2013-06-07 17:52:00,
2013-06-07 10:57:00,67.3,34.0,29.80,NE,38,6.0,15.0,29,0.00,,,0.00,meteohub,2013-06-07 17:57:00,
2013-06-07 11:02:00,67.6,34.2,29.80,North,5,2.0,12.0,29,0.00,,,0.00,meteohub,2013-06-07 18:02:00,
2013-06-07 11:12:00,68.2,32.9,29.79,NNE,17,9.0,11.0,27,0.00,,,0.00,meteohub,2013-06-07 18:12:00,
2013-06-07 11:22:00,68.7,30.4,29.78,NW,318,9.0,11.0,24,0.00,,,0.00,meteohub,2013-06-07 18:22:00,
2013-06-07 11:27:00,69.1,30.7,29.78,ENE,77,3.0,14.0,24,0.00,,,0.00,meteohub,2013-06-07 18:27:00,
2013-06-07 11:32:00,69.1,31.8,29.77,North,355,0.0,14.0,25,0.00,,,0.00,meteohub,2013-06-07 18:32:00,
2013-06-07 11:37:00,69.6,33.3,29.77,North,355,7.0,13.0,26,0.00,,,0.00,meteohub,2013-06-07 18:37:00,
2013-06-07 11:42:00,70.0,33.4,29.77,NNE,17,11.0,22.0,26,0.00,,,0.00,meteohub,2013-06-07 18:42:00,
2013-06-07 11:47:00,70.0,32.5,29.77,NNE,17,7.0,22.0,25,0.00,,,0.00,meteohub,2013-06-07 18:47:00,
2013-06-07 11:52:00,70.2,30.6,29.77,WNW,287,9.0,22.0,23,0.00,,,0.00,meteohub,2013-06-07 18:52:00,
2013-06-07 12:02:00,70.9,32.4,29.76,NW,312,18.0,18.0,24,0.00,,,0.00,meteohub,2013-06-07 19:02:00,
2013-06-07 12:22:00,69.4,33.1,29.76,NW,323,12.0,19.0,26,0.00,,,0.00,meteohub,2013-06-07 19:22:00,
2013-06-07 12:27:00,69.4,34.9,29.76,NW,309,9.0,19.0,28,0.00,,,0.00,meteohub,2013-06-07 19:27:00,
2013-06-07 12:32:00,68.9,31.6,29.76,West,281,10.0,19.0,25,0.00,,,0.00,meteohub,2013-06-07 19:32:00,
2013-06-07 12:37:00,69.3,34.7,29.75,NNW,340,7.0,18.0,28,0.00,,,0.00,meteohub,2013-06-07 19:37:00,
2013-06-07 12:47:00,68.4,33.1,29.76,NW,311,9.0,21.0,27,0.00,,,0.00,meteohub,2013-06-07 19:47:00,
2013-06-07 13:02:00,69.3,34.7,29.76,NW,308,13.0,21.0,28,0.00,,,0.00,meteohub,2013-06-07 20:02:00,
2013-06-07 13:07:00,68.5,31.3,29.76,NW,309,12.0,19.0,25,0.00,,,0.00,meteohub,2013-06-07 20:07:00,
2013-06-07 13:12:00,69.4,34.9,29.75,NW,318,19.0,19.0,28,0.00,,,0.00,meteohub,2013-06-07 20:12:00,
2013-06-07 13:17:00,70.0,32.5,29.75,WNW,298,5.0,22.0,25,0.00,,,0.00,meteohub,2013-06-07 20:17:00,
2013-06-07 13:22:00,70.7,32.2,29.75,NW,311,11.0,22.0,24,0.00,,,0.00,meteohub,2013-06-07 20:22:00,
2013-06-07 13:27:00,70.2,33.6,29.76,NW,317,7.0,22.0,26,0.00,,,0.00,meteohub,2013-06-07 20:27:00,
2013-06-07 13:32:00,70.2,33.6,29.75,NNW,327,11.0,18.0,26,0.00,,,0.00,meteohub,2013-06-07 20:32:00,
2013-06-07 13:37:00,71.1,33.4,29.75,NW,317,13.0,18.0,25,0.00,,,0.00,meteohub,2013-06-07 20:37:00,
2013-06-07 13:47:00,70.2,32.7,29.75,NW,306,13.0,22.0,25,0.00,,,0.00,meteohub,2013-06-07 20:47:00,
2013-06-07 13:57:00,70.3,30.7,29.74,NNW,327,6.0,22.0,23,0.00,,,0.00,meteohub,2013-06-07 20:57:00,
2013-06-07 14:07:00,71.1,33.4,29.75,NW,323,11.0,17.0,25,0.00,,,0.00,meteohub,2013-06-07 21:07:00,
2013-06-07 14:12:00,70.5,32.0,29.74,NW,318,12.0,23.0,24,0.00,,,0.00,meteohub,2013-06-07 21:12:00,
2013-06-07 14:17:00,70.0,32.5,29.75,NW,311,10.0,23.0,25,0.00,,,0.00,meteohub,2013-06-07 21:17:00,
2013-06-07 14:22:00,70.5,34.9,29.74,NW,306,13.0,23.0,27,0.00,,,0.00,meteohub,2013-06-07 21:22:00,
2013-06-07 14:32:00,70.5,32.0,29.75,North,9,8.0,28.0,24,0.00,,,0.00,meteohub,2013-06-07 21:32:00,
2013-06-07 14:37:00,70.7,35.1,29.74,NW,317,10.0,28.0,27,0.00,,,0.00,meteohub,2013-06-07 21:37:00,
2013-06-07 14:42:00,71.1,30.2,29.74,NNW,328,11.0,20.0,22,0.00,,,0.00,meteohub,2013-06-07 21:42:00,
2013-06-07 14:47:00,70.5,32.0,29.74,NNW,328,8.0,21.0,24,0.00,,,0.00,meteohub,2013-06-07 21:47:00,
2013-06-07 14:52:00,70.9,30.2,29.75,NW,314,12.0,21.0,22,0.00,,,0.00,meteohub,2013-06-07 21:52:00,
2013-06-07 14:57:00,70.5,32.0,29.74,NW,319,10.0,20.0,24,0.00,,,0.00,meteohub,2013-06-07 21:57:00,
2013-06-07 15:02:00,70.5,29.8,29.74,NW,319,9.0,21.0,22,0.00,,,0.00,meteohub,2013-06-07 22:02:00,
2013-06-07 15:07:00,70.7,27.7,29.74,West,280,9.0,21.0,20,0.00,,,0.00,meteohub,2013-06-07 22:07:00,
2013-06-07 15:12:00,70.5,27.5,29.74,NW,319,17.0,21.0,20,0.00,,,0.00,meteohub,2013-06-07 22:12:00,
2013-06-07 15:22:00,70.7,28.8,29.74,WNW,298,9.0,19.0,21,0.00,,,0.00,meteohub,2013-06-07 22:22:00,
2013-06-07 15:32:00,70.9,28.9,29.73,NW,311,15.0,21.0,21,0.00,,,0.00,meteohub,2013-06-07 22:32:00,
2013-06-07 15:37:00,70.9,26.6,29.73,NW,319,8.0,20.0,19,0.00,,,0.00,meteohub,2013-06-07 22:37:00,
2013-06-07 15:42:00,71.1,29.1,29.73,NW,322,11.0,20.0,21,0.00,,,0.00,meteohub,2013-06-07 22:42:00,
2013-06-07 15:52:00,70.7,26.4,29.73,NW,313,8.0,22.0,19,0.00,,,0.00,meteohub,2013-06-07 22:52:00,
2013-06-07 15:57:00,71.1,25.3,29.73,NW,315,10.0,22.0,18,0.00,,,0.00,meteohub,2013-06-07 22:57:00,
2013-06-07 16:02:00,70.9,26.6,29.73,NW,319,5.0,22.0,19,0.00,,,0.00,meteohub,2013-06-07 23:02:00,
2013-06-07 16:07:00,71.2,30.4,29.72,NW,312,8.0,20.0,22,0.00,,,0.00,meteohub,2013-06-07 23:07:00,
2013-06-07 16:12:00,70.9,30.2,29.72,NW,323,11.0,20.0,22,0.00,,,0.00,meteohub,2013-06-07 23:12:00,
2013-06-07 16:17:00,71.2,26.8,29.72,NW,311,12.0,16.0,19,0.00,,,0.00,meteohub,2013-06-07 23:17:00,
2013-06-07 16:22:00,71.1,28.0,29.72,NW,315,12.0,16.0,20,0.00,,,0.00,meteohub,2013-06-07 23:22:00,
2013-06-07 16:27:00,69.8,28.0,29.72,WNW,287,9.0,20.0,21,0.00,,,0.00,meteohub,2013-06-07 23:27:00,
2013-06-07 16:37:00,71.6,29.7,29.72,WNW,292,4.0,20.0,21,0.00,,,0.00,meteohub,2013-06-07 23:37:00,
2013-06-07 16:42:00,71.1,31.5,29.72,NW,305,15.0,15.0,23,0.00,,,0.00,meteohub,2013-06-07 23:42:00,
2013-06-07 16:47:00,70.5,30.9,29.72,WNW,300,9.0,19.0,23,0.00,,,0.00,meteohub,2013-06-07 23:47:00,
2013-06-07 16:52:00,70.3,30.7,29.72,WNW,296,8.0,19.0,23,0.00,,,0.00,meteohub,2013-06-07 23:52:00,
2013-06-07 16:57:00,70.5,28.8,29.72,NW,322,6.0,19.0,21,0.00,,,0.00,meteohub,2013-06-07 23:57:00,
2013-06-07 17:02:00,70.5,32.0,29.72,NW,317,10.0,18.0,24,0.00,,,0.00,meteohub,2013-06-08 00:02:00,
2013-06-07 17:12:00,70.5,32.0,29.72,NW,314,6.0,18.0,24,0.00,,,0.00,meteohub,2013-06-08 00:12:00,
2013-06-07 17:17:00,69.4,32.0,29.72,NNW,343,3.0,18.0,25,0.00,,,0.00,meteohub,2013-06-08 00:17:00,
2013-06-07 17:22:00,69.3,32.9,29.72,NW,305,14.0,18.0,26,0.00,,,0.00,meteohub,2013-06-08 00:22:00,
2013-06-07 17:27:00,68.4,32.2,29.72,NW,316,5.0,18.0,26,0.00,,,0.00,meteohub,2013-06-08 00:27:00,
2013-06-07 17:37:00,68.7,32.4,29.72,NW,305,5.0,17.0,26,0.00,,,0.00,meteohub,2013-06-08 00:37:00,
2013-06-07 17:42:00,68.7,32.4,29.72,NW,317,12.0,16.0,26,0.00,,,0.00,meteohub,2013-06-08 00:42:00,
2013-06-07 17:52:00,69.1,32.7,29.72,NW,310,7.0,22.0,26,0.00,,,0.00,meteohub,2013-06-08 00:52:00,
2013-06-07 17:57:00,69.3,33.8,29.72,NW,306,9.0,22.0,27,0.00,,,0.00,meteohub,2013-06-08 00:57:00,
2013-06-07 18:02:00,69.4,33.1,29.72,NW,317,8.0,18.0,26,0.00,,,0.00,meteohub,2013-06-08 01:02:00,
2013-06-07 18:07:00,69.1,30.7,29.72,North,9,2.0,16.0,24,0.00,,,0.00,meteohub,2013-06-08 01:07:00,
2013-06-07 18:17:00,68.2,32.0,29.73,NNE,32,7.0,16.0,26,0.00,,,0.00,meteohub,2013-06-08 01:17:00,
2013-06-07 18:22:00,68.0,31.8,29.73,NW,306,6.0,14.0,26,0.00,,,0.00,meteohub,2013-06-08 01:22:00,
2013-06-07 18:27:00,67.6,30.6,29.73,NNW,342,4.0,15.0,25,0.00,,,0.00,meteohub,2013-06-08 01:27:00,
2013-06-07 18:32:00,68.4,32.2,29.73,NNW,338,5.0,15.0,26,0.00,,,0.00,meteohub,2013-06-08 01:32:00,
2013-06-07 18:37:00,68.5,32.4,29.73,NW,319,9.0,15.0,26,0.00,,,0.00,meteohub,2013-06-08 01:37:00,
2013-06-07 18:47:00,68.5,32.4,29.73,NW,317,4.0,14.0,26,0.00,,,0.00,meteohub,2013-06-08 01:47:00,
2013-06-07 18:52:00,67.8,32.5,29.73,NNE,22,4.0,14.0,27,0.00,,,0.00,meteohub,2013-06-08 01:52:00,
2013-06-07 18:57:00,67.8,30.7,29.73,NW,318,5.0,10.0,25,0.00,,,0.00,meteohub,2013-06-08 01:57:00,
2013-06-07 19:02:00,67.3,30.2,29.73,North,0,4.0,10.0,25,0.00,,,0.00,meteohub,2013-06-08 02:02:00,
2013-06-07 19:12:00,66.7,29.8,29.73,NW,313,7.0,12.0,25,0.00,,,0.00,meteohub,2013-06-08 02:12:00,
2013-06-07 19:17:00,66.2,31.3,29.73,NW,312,6.0,10.0,27,0.00,,,0.00,meteohub,2013-06-08 02:17:00,
2013-06-07 19:22:00,65.7,29.8,29.73,NNW,328,3.0,11.0,26,0.00,,,0.00,meteohub,2013-06-08 02:22:00,
2013-06-07 19:27:00,64.9,29.3,29.73,NW,324,0.0,11.0,26,0.00,,,0.00,meteohub,2013-06-08 02:27:00,
2013-06-07 19:37:00,63.7,31.6,29.73,NW,313,3.0,9.0,30,0.00,,,0.00,meteohub,2013-06-08 02:37:00,
2013-06-07 19:47:00,62.2,31.3,29.74,NW,313,1.0,9.0,31,0.00,,,0.00,meteohub,2013-06-08 02:47:00,
2013-06-07 19:52:00,61.9,32.5,29.74,NW,313,0.0,7.0,33,0.00,,,0.00,meteohub,2013-06-08 02:52:00,
2013-06-07 20:02:00,61.0,30.9,29.74,NW,313,0.0,4.0,32,0.00,,,0.00,meteohub,2013-06-08 03:02:00,
2013-06-07 20:07:00,60.4,32.0,29.74,NW,313,0.0,2.0,34,0.00,,,0.00,meteohub,2013-06-08 03:07:00,
2013-06-07 20:12:00,60.1,29.3,29.75,NW,313,0.0,1.0,31,0.00,,,0.00,meteohub,2013-06-08 03:12:00,
2013-06-07 20:17:00,59.7,29.8,29.75,NW,313,0.0,1.0,32,0.00,,,0.00,meteohub,2013-06-08 03:17:00,
2013-06-07 20:22:00,59.2,34.2,29.75,NW,313,1.0,1.0,39,0.00,,,0.00,meteohub,2013-06-08 03:22:00,
2013-06-07 20:27:00,58.5,30.9,29.75,NW,313,0.0,1.0,35,0.00,,,0.00,meteohub,2013-06-08 03:27:00,
2013-06-07 20:37:00,57.6,32.7,29.75,NW,313,0.0,1.0,39,0.00,,,0.00,meteohub,2013-06-08 03:37:00,
2013-06-07 20:47:00,55.2,32.0,29.75,SSW,198,0.0,3.0,41,0.00,,,0.00,meteohub,2013-06-08 03:47:00,
2013-06-07 20:52:00,54.3,35.1,29.75,SSW,198,0.0,3.0,48,0.00,,,0.00,meteohub,2013-06-08 03:52:00,
2013-06-07 20:57:00,53.4,34.2,29.76,SSW,197,0.0,3.0,48,0.00,,,0.00,meteohub,2013-06-08 03:57:00,
2013-06-07 21:02:00,52.5,33.4,29.76,SSW,197,0.0,2.0,48,0.00,,,0.00,meteohub,2013-06-08 04:02:00,
2013-06-07 21:07:00,52.2,32.0,29.76,SE,136,0.0,3.0,46,0.00,,,0.00,meteohub,2013-06-08 04:07:00,
2013-06-07 21:12:00,52.0,31.8,29.76,SE,136,0.0,3.0,46,0.00,,,0.00,meteohub,2013-06-08 04:12:00,
2013-06-07 21:17:00,51.8,31.1,29.76,SE,136,0.0,3.0,45,0.00,,,0.00,meteohub,2013-06-08 04:17:00,
2013-06-07 21:22:00,51.6,33.6,29.76,SE,136,0.0,2.0,50,0.00,,,0.00,meteohub,2013-06-08 04:22:00,
2013-06-07 21:27:00,51.1,29.3,29.76,SE,136,0.0,2.0,43,0.00,,,0.00,meteohub,2013-06-08 04:27:00,
2013-06-07 21:32:00,51.3,29.5,29.76,SE,136,0.0,2.0,43,0.00,,,0.00,meteohub,2013-06-08 04:32:00,
2013-06-07 21:37:00,51.3,30.0,29.77,SE,136,1.0,2.0,44,0.00,,,0.00,meteohub,2013-06-08 04:37:00,
2013-06-07 21:42:00,50.7,31.3,29.76,SE,136,1.0,3.0,47,0.00,,,0.00,meteohub,2013-06-08 04:42:00,
2013-06-07 21:47:00,49.5,34.0,29.76,SE,136,0.0,3.0,55,0.00,,,0.00,meteohub,2013-06-08 04:47:00,
2013-06-07 21:57:00,48.4,32.9,29.76,SE,139,3.0,3.0,55,0.00,,,0.00,meteohub,2013-06-08 04:57:00,
2013-06-07 22:02:00,48.2,32.7,29.76,SE,140,2.0,4.0,55,0.00,,,0.00,meteohub,2013-06-08 05:02:00,
2013-06-07 22:07:00,48.2,33.3,29.76,SE,140,0.0,4.0,56,0.00,,,0.00,meteohub,2013-06-08 05:07:00,
2013-06-07 22:12:00,47.8,33.8,29.76,SE,140,1.0,4.0,58,0.00,,,0.00,meteohub,2013-06-08 05:12:00,
2013-06-07 22:22:00,47.5,31.6,29.76,SE,140,0.0,4.0,54,0.00,,,0.00,meteohub,2013-06-08 05:22:00,
2013-06-07 22:27:00,47.5,33.1,29.76,SE,140,3.0,4.0,57,0.00,,,0.00,meteohub,2013-06-08 05:27:00,
2013-06-07 22:32:00,47.3,32.4,29.76,SE,141,2.0,4.0,56,0.00,,,0.00,meteohub,2013-06-08 05:32:00,
2013-06-07 22:37:00,47.8,32.5,29.76,SE,142,0.0,4.0,55,0.00,,,0.00,meteohub,2013-06-08 05:37:00,
2013-06-07 22:47:00,48.4,30.0,29.76,SE,142,0.0,4.0,49,0.00,,,0.00,meteohub,2013-06-08 05:47:00,
2013-06-07 22:52:00,49.3,30.4,29.75,SSE,162,2.0,3.0,48,0.00,,,0.00,meteohub,2013-06-08 05:52:00,
2013-06-07 22:57:00,49.1,31.3,29.76,SSE,163,0.0,6.0,50,0.00,,,0.00,meteohub,2013-06-08 05:57:00,
2013-06-07 23:07:00,48.6,31.8,29.75,SSE,163,0.0,3.0,52,0.00,,,0.00,meteohub,2013-06-08 06:07:00,
2013-06-07 23:12:00,48.2,31.8,29.75,SSE,163,0.0,2.0,53,0.00,,,0.00,meteohub,2013-06-08 06:12:00,
2013-06-07 23:17:00,47.7,32.7,29.75,SSE,163,0.0,2.0,56,0.00,,,0.00,meteohub,2013-06-08 06:17:00,
2013-06-07 23:27:00,46.6,33.1,29.75,SSE,163,0.0,3.0,59,0.00,,,0.00,meteohub,2013-06-08 06:27:00,
2013-06-07 23:37:00,45.1,32.5,29.75,SSE,163,0.0,2.0,61,0.00,,,0.00,meteohub,2013-06-08 06:37:00,
2013-06-07 23:42:00,44.8,32.5,29.75,SSE,163,0.0,1.0,62,0.00,,,0.00,meteohub,2013-06-08 06:42:00,
2013-06-07 23:47:00,44.4,30.9,29.75,SSE,163,1.0,1.0,59,0.00,,,0.00,meteohub,2013-06-08 06:47:00,
2013-06-07 23:52:00,44.2,30.7,29.75,SSE,163,0.0,2.0,59,0.00,,,0.00,meteohub,2013-06-08 06:52:00,
2013-06-07 23:57:00,44.2,31.3,29.75,SSE,163,0.0,2.0,60,0.00,,,0.00,meteohub,2013-06-08 06:57:00,